[[{"header":{"parameterUnit":"m.s-1","parameterCategory":1,"la1":30.2991,"la2":30.254,"lo1":-89.0895,"lo2":-89.0444,"dy":0.0017,"dx":0.0017,"nx":28,"ny":28,"refTime":"2023-10-30T03:00:00:Z","depth":0,"parameterNumber":2,"parameterNumberName":"U-component_of_WINDS"},"data":[0,0,0,0,0,0,0,0,0,0,0,0,0,0,0,0,0,0,0,0,0,0,0,0,0,0,0,0,0,0,0,0,0,0,0,0,0,0,0,0,0,0,0,0,0,0,0,0,0,0,0,0,0,0,0,0,0,0,-1.404,-1.4041,0,-1.4135,-1.4136,-1.4137,-1.4167,-1.4167,-1.4166,-1.4166,-1.4262,-1.4265,-1.4268,0,0,0,0,0,0,0,0,0,0,0,0,0,-1.3884,-1.3887,-1.404,-1.4041,-1.4043,-1.4135,-1.4136,-1.4137,-1.4167,-1.4167,-1.4166,-1.4166,-1.4261,-1.4264,-1.4268,0,0,0,0,0,0,0,0,0,0,0,0,0,-1.3962,-1.3887,-1.404,-1.4069,-1.4072,-1.4135,-1.4136,-1.4138,-1.4167,-1.4167,-1.4166,-1.4165,-1.426,-1.4264,-1.4268,-1.4309,0,0,-1.4282,-1.4284,0,0,0,0,0,0,0,0,-1.3958,-1.3968,-1.4063,-1.4067,-1.4071,-1.4139,-1.4116,-1.4195,-1.4167,-1.4131,-1.4166,-1.4165,-1.4221,-1.4229,-1.4248,-1.4314,-1.4318,-1.4282,-1.4285,-1.4287,-1.4288,0,0,0,0,0,0,0,-1.3952,-1.3964,-1.4078,-1.4065,-1.4069,-1.4076,-1.4087,-1.4131,-1.4179,-1.4134,-1.4137,-1.4148,-1.4223,-1.4244,-1.4251,-1.4319,-1.4282,-1.4286,-1.4289,-1.4291,-1.4422,-1.4423,0,0,0,0,0,0,-1.3942,-1.396,-1.4075,-1.4081,-1.4012,-1.408,-1.4091,-1.4117,-1.4178,-1.4187,-1.4148,-1.4149,-1.4236,-1.4245,-1.4254,-1.4305,-1.4287,-1.4291,-1.4294,-1.4421,-1.4422,-1.4423,0,0,0,0,0,0,-1.3939,-1.3952,-1.4071,-1.4021,-1.4036,-1.4083,-1.4112,-1.412,-1.414,-1.4189,-1.4197,-1.416,-1.4236,-1.4248,-1.4295,-1.4309,-1.4293,-1.4297,-1.442,-1.4421,-1.4423,-1.4407,0,0,0,0,0,0,-1.3934,-1.3951,-1.3967,-1.4021,-1.4039,-1.4111,-1.4113,-1.4122,-1.4148,-1.415,-1.4203,-1.4211,-1.4237,-1.4288,-1.4299,-1.4315,-1.4301,-1.4419,-1.4421,-1.4422,-1.4407,-1.4408,-1.4409,0,0,0,0,0,-1.3929,-1.3959,-1.3968,-1.3982,-1.406,-1.4111,-1.4122,-1.4151,-1.4149,-1.4165,-1.4196,-1.4209,-1.4306,-1.4293,-1.4306,-1.4322,-1.4418,-1.442,-1.4422,-1.4406,-1.4408,-1.4409,0,0,0,0,0,0,-1.3905,-1.3967,-1.3977,-1.4026,-1.4063,-1.4116,-1.4138,-1.4152,-1.419,-1.419,-1.4225,-1.4237,-1.4281,-1.4307,-1.4292,-1.4364,-1.4362,-1.4367,-1.4346,-1.4348,-1.4349,-1.4341,-1.4304,0,0,0,0,0,-1.3906,-1.3943,-1.3994,-1.4032,-1.4051,-1.4091,-1.4114,-1.4134,-1.4174,-1.419,-1.4224,-1.4262,-1.4301,-1.4326,-1.4365,-1.4411,-1.4422,-1.4429,-1.443,-1.443,-1.4433,-1.4459,-1.4462,-1.4429,-1.4429,-1.4429,0,0,-1.3908,-1.3946,-1.3967,-1.4029,-1.406,-1.4096,-1.4104,-1.4143,-1.417,-1.4196,-1.4242,-1.4269,-1.4314,-1.436,-1.4382,-1.4383,-1.4445,-1.4432,-1.4433,-1.4436,-1.4461,-1.4464,-1.4467,-1.443,-1.443,-1.443,0,0,-1.3929,-1.3962,-1.3997,-1.4028,-1.4075,-1.4102,-1.411,-1.4161,-1.418,-1.4227,-1.4247,-1.428,-1.4346,-1.4377,-1.4402,-1.4434,-1.4447,-1.4446,-1.4451,-1.4475,-1.4478,-1.448,-1.4491,-1.4494,-1.4449,-1.4449,-1.4449,0,-1.3925,-1.3981,-1.4013,-1.405,-1.4077,-1.4102,-1.4137,-1.4166,-1.4223,-1.424,-1.424,-1.4323,-1.4355,-1.4409,-1.4417,-1.4436,-1.4446,-1.4439,-1.4475,-1.4478,-1.448,-1.4491,-1.4495,-1.4448,-1.4449,-1.4449,-1.4449,0,-1.3973,-1.4012,-1.4035,-1.4089,-1.4118,-1.4154,-1.4191,-1.4216,-1.4233,-1.426,-1.4307,-1.4347,-1.4393,-1.4408,-1.4425,-1.4464,-1.4462,-1.4468,-1.4466,-1.4482,-1.4493,-1.4497,-1.4448,-1.4448,-1.4448,-1.4448,0,0,-1.3982,-1.4054,-1.4061,-1.4086,-1.414,-1.417,-1.4207,-1.4253,-1.4274,-1.4313,-1.4344,-1.44,-1.4405,-1.4433,-1.4453,-1.4475,-1.4497,-1.4478,-1.448,-1.4479,-1.4541,-1.4536,-1.454,-1.4506,-1.4507,-1.4508,-1.4537,0,-1.401,-1.4077,-1.4106,-1.416,-1.4196,-1.422,-1.4252,-1.4289,-1.4314,-1.4348,-1.4377,-1.4415,-1.442,-1.4436,-1.4459,-1.449,-1.451,-1.4488,-1.4535,-1.4536,-1.4522,-1.4546,-1.4541,-1.4567,-1.4542,-1.4543,-1.4543,0,-1.405,-1.4089,-1.4146,-1.4195,-1.4211,-1.424,-1.4284,-1.4316,-1.4357,-1.4375,-1.4405,-1.4425,-1.4464,-1.4461,-1.4515,-1.4499,-1.4521,-1.4538,-1.454,-1.4545,-1.454,-1.455,-1.4576,-1.4579,-1.455,-1.4549,-1.4549,0,-1.405,-1.4116,-1.4159,-1.418,-1.4238,-1.4257,-1.4283,-1.4324,-1.4349,-1.4387,-1.4404,-1.4446,-1.4469,-1.4502,-1.4532,-1.4527,-1.4583,-1.4582,-1.4598,-1.4597,-1.4608,-1.4606,-1.4636,-1.4623,-1.4623,-1.4622,-1.4622,0,-1.4077,-1.411,-1.4159,-1.4185,-1.4224,-1.4257,-1.4294,-1.4321,-1.4357,-1.4389,-1.4413,-1.4442,-1.4481,-1.4514,-1.4539,-1.4579,-1.459,-1.4604,-1.461,-1.4602,-1.46,-1.4615,-1.4614,-1.4624,-1.4623,-1.4623,-1.4623,0,-1.4082,-1.4116,-1.4164,-1.4216,-1.4229,-1.4255,-1.4299,-1.4325,-1.4352,-1.4392,-1.4403,-1.4445,-1.4486,-1.452,-1.4574,-1.459,-1.4632,-1.4639,-1.4618,-1.4621,-1.4634,-1.4632,-1.4673,-1.468,-1.4663,-1.4663,-1.4663,0,-1.4096,-1.4123,-1.4177,-1.42,-1.4225,-1.4261,-1.4287,-1.4321,-1.4347,-1.4396,-1.4416,-1.4459,-1.4495,-1.4559,-1.4594,-1.4635,-1.4643,-1.4655,-1.465,-1.464,-1.4642,-1.464,-1.4643,-1.4655,-1.4655,-1.4655,-1.4655,0,-1.4118,-1.4133,-1.417,-1.4213,-1.4243,-1.4278,-1.4314,-1.4331,-1.4372,-1.44,-1.4442,-1.447,-1.4524,-1.4566,-1.4611,-1.4637,-1.4652,-1.4657,-1.4662,-1.4654,-1.464,-1.4646,-1.4618,-1.4655,-1.4655,-1.4655,-1.4655,-1.4655,-1.4128,-1.4152,-1.4194,-1.4234,-1.4264,-1.4297,-1.4324,-1.4354,-1.439,-1.4437,-1.4455,-1.4498,-1.4539,-1.46,-1.4626,-1.466,-1.4662,-1.467,-1.4672,-1.4673,-1.4672,-1.4635,-1.4669,-1.4669,-1.4669,-1.4669,-1.4669,0,-1.4149,-1.4178,-1.4214,-1.4263,-1.4294,-1.4307,-1.4347,-1.4372,-1.441,-1.4446,-1.4481,-1.4529,-1.457,-1.4609,-1.4651,-1.4671,-1.4679,-1.4681,-1.4679,-1.4684,-1.4668,-1.4659,-1.4673,-1.4673,-1.4673,-1.4673,-1.4673,-1.4673,-1.4164,-1.4206,-1.4227,-1.4284,-1.4312,-1.4354,-1.4376,-1.4406,-1.4435,-1.4488,-1.4522,-1.4547,-1.4584,-1.4629,-1.4667,-1.4677,-1.4691,-1.4691,-1.4703,-1.4687,-1.4686,-1.4685,-1.4676,-1.4694,-1.4694,-1.4716,-1.4716,-1.4717]},{"header":{"parameterUnit":"m.s-1","parameterCategory":1,"la1":30.2991,"la2":30.254,"lo1":-89.0895,"lo2":-89.0444,"dy":0.0017,"dx":0.0017,"nx":28,"ny":28,"refTime":"2023-10-30T03:00:00:Z","depth":0,"parameterNumber":3,"parameterNumberName":"V-component_of_WINDS"},"data":[0,0,0,0,0,0,0,0,0,0,0,0,0,0,0,0,0,0,0,0,0,0,0,0,0,0,0,0,0,0,0,0,0,0,0,0,0,0,0,0,0,0,0,0,0,0,0,0,0,0,0,0,0,0,0,0,0,0,0.7489,0.7492,0,0.7754,0.7757,0.776,0.7858,0.7857,0.7857,0.7856,0.8135,0.8143,0.8151,0,0,0,0,0,0,0,0,0,0,0,0,0,0.7077,0.7084,0.7489,0.7492,0.7496,0.7754,0.7758,0.7761,0.7859,0.7857,0.7856,0.7855,0.8132,0.8142,0.8152,0,0,0,0,0,0,0,0,0,0,0,0,0,0.729,0.7086,0.7489,0.7575,0.7586,0.7753,0.7758,0.7762,0.7859,0.7857,0.7856,0.7855,0.8129,0.8141,0.8153,0.8256,0,0,0.8191,0.8196,0,0,0,0,0,0,0,0,0.7278,0.7305,0.7559,0.757,0.7582,0.7772,0.7715,0.7928,0.7859,0.7755,0.7856,0.7854,0.8016,0.8037,0.809,0.8269,0.8281,0.8192,0.82,0.8205,0.8208,0,0,0,0,0,0,0,0.7263,0.7294,0.7594,0.7563,0.7577,0.7604,0.7633,0.7755,0.789,0.7764,0.7772,0.7802,0.8022,0.8078,0.8097,0.8285,0.8192,0.8203,0.821,0.8215,0.8566,0.8568,0,0,0,0,0,0,0.7233,0.7281,0.7586,0.7602,0.7423,0.7612,0.7645,0.7712,0.7889,0.7914,0.7802,0.7805,0.8057,0.8083,0.8108,0.8242,0.8205,0.8216,0.8224,0.8564,0.8566,0.8568,0,0,0,0,0,0,0.7223,0.7259,0.7575,0.7444,0.7486,0.7621,0.7696,0.7718,0.7775,0.7918,0.7943,0.7835,0.8057,0.809,0.8219,0.8253,0.8222,0.8233,0.8562,0.8565,0.8567,0.851,0,0,0,0,0,0,0.7211,0.7255,0.7293,0.7444,0.7493,0.7679,0.7698,0.7724,0.7795,0.7801,0.7955,0.7979,0.8059,0.82,0.8231,0.8269,0.8243,0.8559,0.8563,0.8566,0.8509,0.851,0.8511,0,0,0,0,0,0.7196,0.7267,0.7294,0.7331,0.7543,0.7681,0.7709,0.7797,0.7797,0.7838,0.7931,0.7974,0.8244,0.8212,0.8248,0.8291,0.8558,0.8562,0.8566,0.8509,0.851,0.8511,0,0,0,0,0,0,0.712,0.7289,0.7321,0.7443,0.7546,0.7697,0.7751,0.7795,0.7903,0.7905,0.8012,0.8046,0.8167,0.8242,0.8203,0.8401,0.8404,0.8415,0.8348,0.835,0.8351,0.8331,0.8253,0,0,0,0,0,0.7116,0.7211,0.7355,0.7449,0.7499,0.7616,0.7679,0.7738,0.7851,0.7896,0.7998,0.8108,0.8218,0.8288,0.8397,0.852,0.8557,0.8568,0.8568,0.8568,0.8578,0.8651,0.8659,0.8582,0.8582,0.8582,0,0,0.7112,0.7216,0.727,0.7436,0.7523,0.7622,0.7652,0.7755,0.783,0.7913,0.804,0.8118,0.8249,0.8375,0.8436,0.8442,0.8607,0.8574,0.8573,0.8583,0.8657,0.8664,0.867,0.8585,0.8585,0.8584,0,0,0.7154,0.7241,0.733,0.7416,0.7547,0.7625,0.7646,0.7791,0.7845,0.7974,0.8038,0.8131,0.8317,0.8408,0.8479,0.8556,0.8602,0.8589,0.8595,0.8665,0.8671,0.8677,0.8707,0.8716,0.8598,0.8597,0.8597,0,0.7133,0.7281,0.7371,0.747,0.7543,0.7619,0.7712,0.7793,0.7953,0.8003,0.8006,0.8243,0.8336,0.8486,0.8505,0.8559,0.8589,0.8573,0.8662,0.8669,0.8676,0.8706,0.8717,0.8595,0.8596,0.8596,0.8596,0,0.725,0.7352,0.7408,0.7559,0.7638,0.7733,0.784,0.791,0.7963,0.8041,0.8173,0.8287,0.8421,0.8461,0.8514,0.862,0.862,0.8641,0.8646,0.868,0.871,0.8722,0.8592,0.8593,0.8593,0.8594,0,0,0.7252,0.745,0.747,0.754,0.769,0.7773,0.7873,0.8002,0.8061,0.817,0.8259,0.8415,0.8436,0.8516,0.8581,0.8642,0.8699,0.8657,0.8662,0.8662,0.8826,0.881,0.8822,0.8729,0.8732,0.8734,0.8816,0,0.7315,0.7494,0.7578,0.7722,0.7819,0.7894,0.7982,0.8086,0.8162,0.8258,0.8343,0.8453,0.8471,0.8521,0.8584,0.8678,0.8734,0.8674,0.8817,0.882,0.8783,0.8837,0.882,0.8892,0.8828,0.883,0.8832,0,0.7413,0.7519,0.7671,0.7812,0.7856,0.7933,0.8059,0.8149,0.8269,0.8321,0.841,0.8472,0.8584,0.858,0.8737,0.8694,0.8758,0.8813,0.8818,0.8836,0.8829,0.8859,0.8917,0.8928,0.8851,0.8849,0.8848,0,0.7401,0.7583,0.7698,0.7756,0.7922,0.7975,0.8047,0.8166,0.8238,0.835,0.8399,0.8522,0.859,0.8686,0.8781,0.8769,0.893,0.8933,0.8979,0.8976,0.9011,0.9007,0.9082,0.9048,0.9048,0.9048,0.9047,0,0.7465,0.7555,0.7695,0.7766,0.7871,0.7968,0.8071,0.815,0.8255,0.8345,0.8418,0.8501,0.8621,0.8721,0.8796,0.8916,0.8946,0.8993,0.9012,0.8988,0.8982,0.9032,0.903,0.9051,0.905,0.9049,0.9049,0,0.747,0.7566,0.7697,0.7843,0.7882,0.7954,0.8081,0.8155,0.8234,0.8347,0.838,0.8506,0.8627,0.873,0.8891,0.8942,0.9067,0.9089,0.9025,0.9036,0.9076,0.9072,0.9187,0.9208,0.9157,0.9158,0.9158,0,0.7504,0.7576,0.7729,0.7793,0.7864,0.7966,0.8041,0.814,0.8215,0.8358,0.8415,0.8541,0.8647,0.8838,0.8946,0.907,0.9097,0.9129,0.9116,0.909,0.9101,0.9096,0.9105,0.913,0.913,0.913,0.913,0,0.7556,0.76,0.7703,0.7823,0.7909,0.8009,0.8111,0.816,0.828,0.8361,0.8484,0.8566,0.873,0.8855,0.8991,0.9069,0.9121,0.9133,0.915,0.9127,0.9088,0.9112,0.9029,0.913,0.913,0.913,0.913,0.913,0.7579,0.7647,0.7765,0.7878,0.7965,0.8059,0.8135,0.8224,0.8328,0.8466,0.852,0.8647,0.8769,0.8955,0.9034,0.9137,0.9145,0.9169,0.9176,0.9181,0.9179,0.9069,0.9162,0.9162,0.9162,0.9163,0.9163,0,0.7636,0.7716,0.7818,0.7958,0.8048,0.8085,0.8201,0.8274,0.8384,0.8491,0.8594,0.8738,0.886,0.8977,0.9106,0.9167,0.9194,0.9197,0.9195,0.9213,0.9163,0.9136,0.9173,0.9173,0.9173,0.9173,0.9173,0.9173,0.7677,0.7794,0.7852,0.8015,0.8095,0.8218,0.8281,0.837,0.8456,0.8612,0.8713,0.8787,0.8901,0.9039,0.9154,0.9186,0.9231,0.9228,0.9267,0.9218,0.9216,0.9214,0.9189,0.9237,0.9237,0.9308,0.9309,0.931]}]]